• In Uzbekistan
  • List of Countries
  • For 7 days
  • Water Temperature
  • Weather Map
  • Weather Widgets
  • user-avatar
    Login

    Hourly Weather Brisbane

    Today, 27 May, Wednesday

    Time Temperature Precipitation Wind Pressure Humidity
    00:00 +17°C° 0 mm 2 mps 762 mmHg 61%
    01:00 +16°C° 0 mm 2 mps 762 mmHg 63%
    02:00 +16°C° 0 mm 2 mps 762 mmHg 65%
    03:00 +16°C° 0 mm 2 mps 762 mmHg 67%
    04:00 +16°C° 0 mm 1 mps 762 mmHg 67%
    05:00 +16°C° 0 mm 1 mps 762 mmHg 69%
    06:00 +15°C° 0 mm 1 mps 763 mmHg 71%
    07:00 +15°C° 0 mm 1 mps 763 mmHg 72%
    08:00 +18°C° 0 mm 1 mps 763 mmHg 67%
    09:00 +20°C° 0 mm 1 mps 763 mmHg 61%
    10:00 +20°C° 0 mm 0 mps 763 mmHg 55%
    11:00 +21°C° 0 mm 0 mps 763 mmHg 52%
    12:00 +22°C° 0 mm 0 mps 762 mmHg 50%
    13:00 +23°C° 0 mm 0 mps 761 mmHg 47%
    14:00 +25°C° 0 mm 1 mps 761 mmHg 50%
    15:00 +24°C° 0 mm 1 mps 761 mmHg 52%
    16:00 +24°C° 0 mm 1 mps 761 mmHg 54%
    17:00 +22°C° 0 mm 1 mps 762 mmHg 59%
    18:00 +21°C° 0 mm 1 mps 762 mmHg 64%
    19:00 +20°C° 0 mm 1 mps 762 mmHg 68%
    20:00 +19°C° 0 mm 1 mps 762 mmHg 70%
    21:00 +19°C° 0 mm 1 mps 762 mmHg 71%
    22:00 +16°C° 0 mm 0 mps 763 mmHg 73%
    23:00 +18°C° 0 mm 1 mps 762 mmHg 74%

    Tomorrow, 28 May, Thursday

    Time Temperature Precipitation Wind Pressure Humidity
    00:00 +18°C° 0 mm 1 mps 762 mmHg 75%
    01:00 +16°C° 0 mm 1 mps 762 mmHg 76%
    02:00 +16°C° 0 mm 1 mps 762 mmHg 77%
    03:00 +16°C° 0 mm 1 mps 762 mmHg 79%
    04:00 +16°C° 0 mm 1 mps 762 mmHg 80%
    05:00 +16°C° 0 mm 1 mps 762 mmHg 81%
    06:00 +16°C° 0 mm 1 mps 763 mmHg 82%
    07:00 +16°C° 0 mm 1 mps 763 mmHg 83%
    08:00 +19°C° 0 mm 1 mps 763 mmHg 75%
    09:00 +21°C° 0 mm 1 mps 763 mmHg 67%
    10:00 +23°C° 0 mm 1 mps 763 mmHg 58%
    11:00 +25°C° 0 mm 1 mps 763 mmHg 54%
    12:00 +26°C° 0 mm 1 mps 762 mmHg 50%
    13:00 +25°C° 0 mm 0 mps 762 mmHg 46%
    14:00 +26°C° 0 mm 1 mps 762 mmHg 49%
    15:00 +26°C° 0 mm 1 mps 762 mmHg 52%
    16:00 +25°C° 0 mm 1 mps 762 mmHg 55%
    17:00 +23°C° 0 mm 1 mps 762 mmHg 62%
    18:00 +22°C° 0 mm 1 mps 762 mmHg 69%
    19:00 +20°C° 0 mm 1 mps 763 mmHg 76%
    20:00 +20°C° 0 mm 1 mps 763 mmHg 77%
    21:00 +20°C° 0 mm 1 mps 764 mmHg 78%
    22:00 +19°C° 0 mm 1 mps 764 mmHg 78%
    23:00 +19°C° 0 mm 1 mps 764 mmHg 80%

    Day after tomorrow, 29 May, Friday

    Time Temperature Precipitation Wind Pressure Humidity
    00:00 +18°C° 0 mm 1 mps 764 mmHg 82%
    01:00 +18°C° 0 mm 1 mps 763 mmHg 84%
    02:00 +18°C° 0 mm 1 mps 763 mmHg 85%
    03:00 +16°C° 0 mm 1 mps 763 mmHg 86%
    04:00 +16°C° 0 mm 2 mps 764 mmHg 88%
    05:00 +16°C° 0 mm 2 mps 764 mmHg 88%
    06:00 +15°C° 0 mm 2 mps 764 mmHg 88%
    07:00 +15°C° 0 mm 2 mps 765 mmHg 88%
    08:00 +17°C° 0 mm 2 mps 765 mmHg 78%
    09:00 +20°C° 0 mm 3 mps 765 mmHg 69%
    10:00 +22°C° 0 mm 3 mps 766 mmHg 59%
    11:00 +22°C° 0 mm 4 mps 765 mmHg 56%
    12:00 +23°C° 0 mm 4 mps 764 mmHg 52%
    13:00 +25°C° 0 mm 4 mps 764 mmHg 48%
    14:00 +25°C° 0 mm 5 mps 764 mmHg 51%
    15:00 +23°C° 0 mm 5 mps 764 mmHg 54%
    16:00 +22°C° 0 mm 5 mps 764 mmHg 57%
    17:00 +21°C° 0 mm 4 mps 765 mmHg 63%
    18:00 +19°C° 0 mm 4 mps 765 mmHg 68%
    19:00 +18°C° 0 mm 4 mps 766 mmHg 74%
    20:00 +18°C° 0 mm 3 mps 766 mmHg 77%
    21:00 +17°C° 0 mm 3 mps 767 mmHg 79%
    22:00 +16°C° 0 mm 3 mps 767 mmHg 82%
    23:00 +16°C° 0.1 mm 3 mps 767 mmHg 83%

    30 May, Saturday

    Time Temperature Precipitation Wind Pressure Humidity
    00:00 +16°C° 0.1 mm 2 mps 767 mmHg 84%
    01:00 +15°C° 0.1 mm 2 mps 766 mmHg 86%
    02:00 +15°C° 0.1 mm 2 mps 766 mmHg 86%
    03:00 +15°C° 0.1 mm 2 mps 766 mmHg 87%
    04:00 +15°C° 0.1 mm 2 mps 766 mmHg 87%
    05:00 +15°C° 0 mm 2 mps 767 mmHg 87%
    06:00 +15°C° 0 mm 2 mps 767 mmHg 87%
    07:00 +15°C° 0 mm 2 mps 767 mmHg 87%
    08:00 +17°C° 0 mm 2 mps 767 mmHg 79%
    09:00 +19°C° 0 mm 3 mps 767 mmHg 70%
    10:00 +21°C° 0 mm 3 mps 767 mmHg 62%
    11:00 +22°C° 0 mm 3 mps 767 mmHg 57%
    12:00 +23°C° 0 mm 4 mps 766 mmHg 53%
    13:00 +25°C° 0 mm 4 mps 765 mmHg 48%
    14:00 +23°C° 0 mm 4 mps 765 mmHg 51%
    15:00 +22°C° 0 mm 4 mps 765 mmHg 54%
    16:00 +22°C° 0 mm 4 mps 765 mmHg 56%
    17:00 +20°C° 0 mm 3 mps 765 mmHg 62%
    18:00 +19°C° 0 mm 3 mps 766 mmHg 67%
    19:00 +18°C° 0 mm 2 mps 766 mmHg 72%
    20:00 +17°C° 0 mm 2 mps 766 mmHg 74%
    21:00 +17°C° 0 mm 2 mps 766 mmHg 76%
    22:00 +16°C° 0 mm 1 mps 767 mmHg 77%
    23:00 +16°C° 0 mm 1 mps 766 mmHg 79%

    31 May, Sunday

    Time Temperature Precipitation Wind Pressure Humidity
    00:00 +16°C° 0 mm 1 mps 766 mmHg 80%
    01:00 +15°C° 0 mm 1 mps 765 mmHg 82%
    02:00 +15°C° 0 mm 1 mps 765 mmHg 81%
    03:00 +15°C° 0 mm 1 mps 765 mmHg 81%
    04:00 +15°C° 0 mm 1 mps 765 mmHg 81%
    05:00 +15°C° 0 mm 1 mps 765 mmHg 82%
    06:00 +15°C° 0 mm 1 mps 766 mmHg 83%
    07:00 +15°C° 0 mm 1 mps 766 mmHg 84%
    08:00 +18°C° 0 mm 1 mps 766 mmHg 75%
    09:00 +20°C° 0 mm 1 mps 766 mmHg 67%
    10:00 +22°C° 0 mm 1 mps 766 mmHg 58%
    11:00 +24°C° 0 mm 1 mps 765 mmHg 52%
    12:00 +25°C° 0 mm 1 mps 764 mmHg 46%
    13:00 +26°C° 0 mm 1 mps 764 mmHg 40%
    14:00 +25°C° 0 mm 1 mps 763 mmHg 43%
    15:00 +24°C° 0 mm 2 mps 763 mmHg 47%
    16:00 +23°C° 0 mm 2 mps 763 mmHg 51%
    17:00 +21°C° 0 mm 2 mps 763 mmHg 57%
    18:00 +19°C° 0 mm 2 mps 764 mmHg 64%
    19:00 +19°C° 0 mm 1 mps 764 mmHg 70%
    20:00 +18°C° 0 mm 1 mps 764 mmHg 73%
    21:00 +18°C° 0 mm 1 mps 764 mmHg 76%
    22:00 +16°C° 0 mm 1 mps 764 mmHg 79%
    23:00 +16°C° 0 mm 1 mps 764 mmHg 80%

    1 June, Monday

    Time Temperature Precipitation Wind Pressure Humidity
    00:00 +16°C° 0 mm 1 mps 763 mmHg 81%
    01:00 +15°C° 0 mm 1 mps 763 mmHg 82%
    02:00 +15°C° 0 mm 1 mps 763 mmHg 82%
    03:00 +15°C° 0 mm 1 mps 762 mmHg 82%
    04:00 +15°C° 0 mm 1 mps 762 mmHg 83%
    05:00 +15°C° 0 mm 1 mps 763 mmHg 83%
    06:00 +15°C° 0 mm 1 mps 763 mmHg 82%
    07:00 +14°C° 0 mm 1 mps 763 mmHg 82%
    08:00 +18°C° 0 mm 1 mps 763 mmHg 73%
    09:00 +20°C° 0 mm 1 mps 763 mmHg 63%
    10:00 +23°C° 0 mm 2 mps 763 mmHg 53%
    11:00 +24°C° 0 mm 2 mps 762 mmHg 47%
    12:00 +25°C° 0 mm 2 mps 762 mmHg 41%
    13:00 +26°C° 0 mm 2 mps 761 mmHg 35%
    14:00 +26°C° 0 mm 2 mps 761 mmHg 38%
    15:00 +25°C° 0 mm 2 mps 761 mmHg 40%
    16:00 +24°C° 0 mm 2 mps 761 mmHg 42%
    17:00 +23°C° 0 mm 2 mps 761 mmHg 46%
    18:00 +21°C° 0 mm 2 mps 761 mmHg 49%
    19:00 +20°C° 0 mm 2 mps 762 mmHg 52%
    20:00 +19°C° 0 mm 2 mps 762 mmHg 52%
    21:00 +18°C° 0 mm 2 mps 762 mmHg 53%
    22:00 +19°C° 0 mm 1 mps 762 mmHg 53%
    23:00 +17°C° 0 mm 2 mps 762 mmHg 55%
    Show more